When you browse on this site, cookies collect data to enhance your experience and personalize the content and advertising you see.
Visit our Privacy Policy to learn more. By continuing to use the site, you agree to this use of cookies and data.
  • en France
  • Liste des pays
  • À 7 jours
  • Température de l'eau
  • Carte météo
  • Widgets météo
  • user-avatar
    Se connecter

    Météo par heure à Taba

    Ce jour, 29 Mai, Vendredi

    Heure Température Précipitation Vent Pression Humidité
    00:00 +17°C° 0 mm 4 m/s 693 mmHg 59%
    01:00 +15°C° 0 mm 4 m/s 693 mmHg 66%
    02:00 +14°C° 0 mm 5 m/s 692 mmHg 72%
    03:00 +13°C° 0 mm 4 m/s 692 mmHg 77%
    04:00 +13°C° 0 mm 4 m/s 692 mmHg 81%
    05:00 +12°C° 0 mm 3 m/s 693 mmHg 86%
    06:00 +14°C° 0 mm 4 m/s 693 mmHg 73%
    07:00 +17°C° 0 mm 4 m/s 694 mmHg 60%
    08:00 +17°C° 0 mm 5 m/s 694 mmHg 47%
    09:00 +20°C° 0 mm 5 m/s 694 mmHg 40%
    10:00 +21°C° 0 mm 6 m/s 694 mmHg 33%
    11:00 +23°C° 0 mm 6 m/s 694 mmHg 26%
    12:00 +24°C° 0 mm 6 m/s 694 mmHg 23%
    13:00 +26°C° 0 mm 6 m/s 694 mmHg 20%
    14:00 +27°C° 0 mm 6 m/s 694 mmHg 17%
    15:00 +27°C° 0 mm 7 m/s 693 mmHg 17%
    16:00 +26°C° 0 mm 7 m/s 693 mmHg 18%
    17:00 +26°C° 0 mm 8 m/s 693 mmHg 19%
    18:00 +22°C° 0 mm 8 m/s 693 mmHg 30%
    19:00 +20°C° 0 mm 7 m/s 693 mmHg 40%
    20:00 +16°C° 0 mm 7 m/s 693 mmHg 50%
    21:00 +15°C° 0 mm 6 m/s 693 mmHg 56%
    22:00 +15°C° 0 mm 5 m/s 693 mmHg 62%
    23:00 +14°C° 0 mm 4 m/s 693 mmHg 68%

    Demain, 30 Mai, Samedi

    Heure Température Précipitation Vent Pression Humidité
    00:00 +13°C° 0 mm 4 m/s 692 mmHg 72%
    01:00 +12°C° 0 mm 4 m/s 692 mmHg 77%
    02:00 +12°C° 0 mm 4 m/s 692 mmHg 81%
    03:00 +11°C° 0 mm 4 m/s 692 mmHg 83%
    04:00 +11°C° 0 mm 3 m/s 692 mmHg 84%
    05:00 +11°C° 0 mm 3 m/s 692 mmHg 86%
    06:00 +13°C° 0 mm 4 m/s 693 mmHg 71%
    07:00 +15°C° 0 mm 4 m/s 693 mmHg 55%
    08:00 +17°C° 0 mm 5 m/s 693 mmHg 40%
    09:00 +20°C° 0 mm 5 m/s 694 mmHg 34%
    10:00 +22°C° 0 mm 5 m/s 694 mmHg 28%
    11:00 +25°C° 0 mm 5 m/s 694 mmHg 22%
    12:00 +26°C° 0 mm 5 m/s 693 mmHg 20%
    13:00 +28°C° 0 mm 5 m/s 693 mmHg 18%
    14:00 +29°C° 0 mm 5 m/s 693 mmHg 16%
    15:00 +28°C° 0 mm 6 m/s 693 mmHg 17%
    16:00 +28°C° 0 mm 7 m/s 693 mmHg 17%
    17:00 +28°C° 0 mm 8 m/s 692 mmHg 17%
    18:00 +24°C° 0 mm 8 m/s 692 mmHg 28%
    19:00 +21°C° 0 mm 8 m/s 692 mmHg 40%
    20:00 +17°C° 0 mm 8 m/s 692 mmHg 51%
    21:00 +16°C° 0 mm 6 m/s 692 mmHg 57%
    22:00 +15°C° 0 mm 5 m/s 692 mmHg 64%
    23:00 +14°C° 0 mm 4 m/s 692 mmHg 71%

    Après-demain, 31 Mai, Dimanche

    Heure Température Précipitation Vent Pression Humidité
    00:00 +14°C° 0 mm 4 m/s 692 mmHg 74%
    01:00 +13°C° 0 mm 4 m/s 692 mmHg 76%
    02:00 +13°C° 0 mm 4 m/s 692 mmHg 79%
    03:00 +13°C° 0 mm 4 m/s 692 mmHg 79%
    04:00 +12°C° 0 mm 3 m/s 692 mmHg 78%
    05:00 +12°C° 0 mm 3 m/s 692 mmHg 78%
    06:00 +14°C° 0 mm 3 m/s 692 mmHg 64%
    07:00 +17°C° 0 mm 4 m/s 692 mmHg 51%
    08:00 +20°C° 0 mm 4 m/s 693 mmHg 37%
    09:00 +22°C° 0 mm 4 m/s 693 mmHg 32%
    10:00 +25°C° 0 mm 5 m/s 693 mmHg 26%
    11:00 +27°C° 0 mm 5 m/s 693 mmHg 21%
    12:00 +29°C° 0 mm 5 m/s 693 mmHg 18%
    13:00 +30°C° 0 mm 5 m/s 692 mmHg 16%
    14:00 +32°C° 0 mm 6 m/s 692 mmHg 14%
    15:00 +30°C° 0 mm 7 m/s 692 mmHg 15%
    16:00 +30°C° 0 mm 7 m/s 692 mmHg 17%
    17:00 +29°C° 0 mm 8 m/s 691 mmHg 18%
    18:00 +26°C° 0 mm 8 m/s 691 mmHg 26%
    19:00 +22°C° 0 mm 7 m/s 691 mmHg 33%
    20:00 +19°C° 0 mm 6 m/s 691 mmHg 41%
    21:00 +19°C° 0 mm 5 m/s 692 mmHg 44%
    22:00 +18°C° 0 mm 4 m/s 692 mmHg 47%
    23:00 +17°C° 0 mm 3 m/s 692 mmHg 51%

    1 Juin, Lundi

    Heure Température Précipitation Vent Pression Humidité
    00:00 +16°C° 0 mm 3 m/s 691 mmHg 53%
    01:00 +16°C° 0 mm 3 m/s 691 mmHg 56%
    02:00 +14°C° 0 mm 4 m/s 691 mmHg 59%
    03:00 +14°C° 0 mm 3 m/s 691 mmHg 57%
    04:00 +14°C° 0 mm 3 m/s 690 mmHg 55%
    05:00 +14°C° 0 mm 2 m/s 690 mmHg 52%
    06:00 +18°C° 0 mm 3 m/s 691 mmHg 41%
    07:00 +21°C° 0 mm 3 m/s 691 mmHg 29%
    08:00 +25°C° 0 mm 3 m/s 692 mmHg 17%
    09:00 +27°C° 0 mm 4 m/s 692 mmHg 16%
    10:00 +29°C° 0 mm 6 m/s 692 mmHg 15%
    11:00 +32°C° 0 mm 7 m/s 692 mmHg 14%
    12:00 +33°C° 0 mm 7 m/s 692 mmHg 13%
    13:00 +34°C° 0 mm 7 m/s 692 mmHg 12%
    14:00 +35°C° 0 mm 7 m/s 691 mmHg 12%
    15:00 +34°C° 0 mm 7 m/s 691 mmHg 12%
    16:00 +34°C° 0 mm 7 m/s 691 mmHg 12%
    17:00 +34°C° 0 mm 7 m/s 691 mmHg 12%
    18:00 +32°C° 0 mm 6 m/s 691 mmHg 15%
    19:00 +29°C° 0 mm 5 m/s 691 mmHg 18%
    20:00 +27°C° 0 mm 4 m/s 691 mmHg 21%
    21:00 +25°C° 0 mm 3 m/s 691 mmHg 24%
    22:00 +24°C° 0 mm 3 m/s 691 mmHg 26%
    23:00 +23°C° 0 mm 2 m/s 690 mmHg 29%

    2 Juin, Mardi

    Heure Température Précipitation Vent Pression Humidité
    00:00 +23°C° 0 mm 1 m/s 690 mmHg 29%
    01:00 +23°C° 0 mm 1 m/s 690 mmHg 30%
    02:00 +22°C° 0 mm 1 m/s 689 mmHg 30%
    03:00 +23°C° 0 mm 1 m/s 689 mmHg 29%
    04:00 +23°C° 0 mm 1 m/s 689 mmHg 28%
    05:00 +23°C° 0 mm 1 m/s 689 mmHg 27%
    06:00 +26°C° 0 mm 2 m/s 690 mmHg 23%
    07:00 +28°C° 0 mm 2 m/s 690 mmHg 20%
    08:00 +31°C° 0 mm 2 m/s 691 mmHg 16%
    09:00 +34°C° 0 mm 2 m/s 691 mmHg 15%
    10:00 +35°C° 0 mm 2 m/s 691 mmHg 13%
    11:00 +37°C° 0 mm 2 m/s 691 mmHg 12%
    12:00 +37°C° 0 mm 3 m/s 691 mmHg 12%
    13:00 +38°C° 0 mm 3 m/s 691 mmHg 11%
    14:00 +40°C° 0 mm 4 m/s 690 mmHg 11%
    15:00 +38°C° 0 mm 4 m/s 690 mmHg 11%
    16:00 +38°C° 0 mm 4 m/s 690 mmHg 11%
    17:00 +38°C° 0 mm 4 m/s 689 mmHg 11%
    18:00 +36°C° 0 mm 3 m/s 690 mmHg 13%
    19:00 +34°C° 0 mm 2 m/s 690 mmHg 15%
    20:00 +31°C° 0 mm 2 m/s 690 mmHg 17%
    21:00 +29°C° 0 mm 3 m/s 690 mmHg 27%
    22:00 +27°C° 0 mm 3 m/s 690 mmHg 36%
    23:00 +25°C° 0 mm 4 m/s 690 mmHg 46%

    3 Juin, Mercredi

    Heure Température Précipitation Vent Pression Humidité
    00:00 +24°C° 0 mm 3 m/s 689 mmHg 49%
    01:00 +22°C° 0 mm 3 m/s 689 mmHg 51%
    02:00 +21°C° 0 mm 2 m/s 689 mmHg 54%
    03:00 +21°C° 0 mm 2 m/s 689 mmHg 54%
    04:00 +21°C° 0 mm 2 m/s 689 mmHg 53%
    05:00 +20°C° 0 mm 2 m/s 689 mmHg 52%
    06:00 +23°C° 0 mm 2 m/s 689 mmHg 44%
    07:00 +26°C° 0 mm 3 m/s 690 mmHg 37%
    08:00 +28°C° 0 mm 3 m/s 690 mmHg 29%
    09:00 +30°C° 0 mm 2 m/s 690 mmHg 26%
    10:00 +32°C° 0 mm 2 m/s 691 mmHg 22%
    11:00 +35°C° 0 mm 2 m/s 691 mmHg 18%
    12:00 +36°C° 0 mm 2 m/s 690 mmHg 16%
    13:00 +37°C° 0 mm 2 m/s 690 mmHg 15%
    14:00 +39°C° 0 mm 2 m/s 690 mmHg 13%
    15:00 +38°C° 0 mm 2 m/s 690 mmHg 13%
    16:00 +38°C° 0 mm 3 m/s 690 mmHg 13%
    17:00 +38°C° 0 mm 3 m/s 689 mmHg 13%
    18:00 +35°C° 0 mm 4 m/s 689 mmHg 17%
    19:00 +33°C° 0 mm 4 m/s 689 mmHg 21%
    20:00 +29°C° 0 mm 5 m/s 689 mmHg 26%
    21:00 +28°C° 0 mm 4 m/s 689 mmHg 27%
    22:00 +27°C° 0 mm 3 m/s 690 mmHg 29%
    23:00 +26°C° 0 mm 3 m/s 690 mmHg 30%
    Voir plus